Location: Rio Negrinho
(26.2394°S, 49.4999°W)
Time: 02:46:49
(UTC+00:00)

SEDSat Delta rocket - Pass Details

Date: 08 October 2020
Orbit: 533 x 1000 km, 31.4° (Epoch: 20 October)

Event Time Altitude Azimuth Distance (km) Brightness Sun altitude
Rises 23:48:27 0° 254° (WSW) 3,446 7.9 -32.2°
Reaches altitude 10° 23:51:14 10° 249° (WSW) 2,432 6.9 -32.8°
Enters shadow 23:55:11 40° 226° (SW) 1,135 4.7 -33.6°
